contact:dominique.lefevre@mio.osupytheas.fr, maurice.libes@osupytheas.fr, didier.mallarino@osupytheas.fr
Project:EMSO http://www.emso-fr.org/EMSO-France
Depth: 2436.0 m
Title:EMSO Ligure Ouest : Data MII capteur MICROCAT
DateTime_Computer,Latitude,Longitude,Temperature,Conductivity,Pressure,DateTime_Instrument
DateTime_Computer,Latitude,Longitude,degC,S m-1,dbar,DateTime_Instrument
2019-07-12T07:43:08Z,42.805,6.029,13.2957,4.59954,2469.876,2019-7-12T09:43:26Z
2019-07-12T07:46:11Z,42.805,6.029,13.2955,4.59953,2469.876,2019-7-12T09:46:29Z
2019-07-12T07:49:15Z,42.805,6.029,13.2954,4.59953,2469.83,2019-7-12T09:49:33Z
2019-07-12T07:52:18Z,42.805,6.029,13.2953,4.59954,2469.876,2019-7-12T09:52:36Z
2019-07-12T07:55:21Z,42.805,6.029,13.2952,4.59954,2469.853,2019-7-12T09:55:39Z
2019-07-12T07:58:24Z,42.805,6.029,13.2955,4.59954,2469.844,2019-7-12T09:58:42Z
2019-07-12T08:01:27Z,42.805,6.029,13.2957,4.59954,2469.83,2019-7-12T10:01:45Z
2019-07-12T08:04:31Z,42.805,6.029,13.2955,4.59956,2469.83,2019-7-12T10:04:49Z
2019-07-12T08:07:34Z,42.805,6.029,13.2952,4.59953,2469.844,2019-7-12T10:07:52Z
2019-07-12T08:10:37Z,42.805,6.029,13.2957,4.59953,2469.83,2019-7-12T10:10:55Z
2019-07-12T08:13:40Z,42.805,6.029,13.2957,4.59954,2469.844,2019-7-12T10:13:58Z
2019-07-12T08:16:43Z,42.805,6.029,13.2960,4.59953,2469.821,2019-7-12T10:17:01Z
2019-07-12T08:19:47Z,42.805,6.029,13.2961,4.59954,2469.853,2019-7-12T10:20:05Z
2019-07-12T08:22:50Z,42.805,6.029,13.2966,4.59953,2469.821,2019-7-12T10:23:08Z
2019-07-12T08:25:53Z,42.805,6.029,13.2958,4.59956,2469.806,2019-7-12T10:26:11Z
2019-07-12T08:28:56Z,42.805,6.029,13.2957,4.59955,2469.853,2019-7-12T10:29:14Z
2019-07-12T08:31:59Z,42.805,6.029,13.2957,4.59953,2469.83,2019-7-12T10:32:17Z
2019-07-12T08:35:02Z,42.805,6.029,13.2957,4.59953,2469.844,2019-7-12T10:35:21Z
2019-07-12T08:38:06Z,42.805,6.029,13.2958,4.59954,2469.83,2019-7-12T10:38:24Z
2019-07-12T08:41:09Z,42.805,6.029,13.2957,4.59954,2469.83,2019-7-12T10:41:27Z
2019-07-12T08:44:12Z,42.805,6.029,13.2955,4.59954,2469.821,2019-7-12T10:44:30Z
2019-07-12T08:47:15Z,42.805,6.029,13.2960,4.59954,2469.83,2019-7-12T10:47:33Z
2019-07-12T08:50:18Z,42.805,6.029,13.2958,4.59956,2469.83,2019-7-12T10:50:37Z
2019-07-12T08:53:22Z,42.805,6.029,13.2958,4.59954,2469.821,2019-7-12T10:53:40Z
2019-07-12T08:56:25Z,42.805,6.029,13.2960,4.59956,2469.83,2019-7-12T10:56:43Z
2019-07-12T08:59:28Z,42.805,6.029,13.2954,4.59954,2469.844,2019-7-12T10:59:46Z
2019-07-12T09:02:31Z,42.805,6.029,13.2957,4.59958,2469.797,2019-7-12T11:02:49Z
2019-07-12T09:05:34Z,42.805,6.029,13.2950,4.59952,2469.821,2019-7-12T11:05:53Z
2019-07-12T09:08:38Z,42.805,6.029,13.2958,4.59952,2469.83,2019-7-12T11:08:56Z
2019-07-12T09:11:41Z,42.805,6.029,13.2952,4.59951,2469.821,2019-7-12T11:11:59Z
2019-07-12T09:14:44Z,42.805,6.029,13.2955,4.59952,2469.844,2019-7-12T11:15:02Z
2019-07-12T09:17:47Z,42.805,6.029,13.2961,4.59952,2469.806,2019-7-12T11:18:05Z
2019-07-12T09:20:50Z,42.805,6.029,13.2956,4.59951,2469.806,2019-7-12T11:21:08Z
2019-07-12T09:23:53Z,42.805,6.029,13.2953,4.59952,2469.83,2019-7-12T11:24:12Z
2019-07-12T09:26:57Z,42.805,6.029,13.2958,4.59954,2469.76,2019-7-12T11:27:15Z
2019-07-12T09:30:00Z,42.805,6.029,13.2957,4.59955,2469.821,2019-7-12T11:30:18Z
2019-07-12T09:33:03Z,42.805,6.029,13.2959,4.59954,2469.806,2019-7-12T11:33:21Z
2019-07-12T09:36:06Z,42.805,6.029,13.2957,4.59953,2469.797,2019-7-12T11:36:25Z
2019-07-12T09:39:10Z,42.805,6.029,13.2957,4.59953,2469.806,2019-7-12T11:39:28Z
2019-07-12T09:42:13Z,42.805,6.029,13.2949,4.59953,2469.783,2019-7-12T11:42:31Z
2019-07-12T09:45:16Z,42.805,6.029,13.2957,4.59955,2469.797,2019-7-12T11:45:34Z
2019-07-12T09:48:19Z,42.805,6.029,13.2957,4.59953,2469.797,2019-7-12T11:48:37Z
2019-07-12T09:51:22Z,42.805,6.029,13.2954,4.59953,2469.783,2019-7-12T11:51:40Z
2019-07-12T09:54:25Z,42.805,6.029,13.2953,4.59954,2469.783,2019-7-12T11:54:44Z
2019-07-12T09:57:29Z,42.805,6.029,13.2957,4.59952,2469.783,2019-7-12T11:57:47Z
2019-07-12T10:00:32Z,42.805,6.029,13.2955,4.59956,2469.783,2019-7-12T12:00:50Z
2019-07-12T10:03:35Z,42.805,6.029,13.2956,4.59953,2469.797,2019-7-12T12:03:53Z
2019-07-12T10:06:38Z,42.805,6.029,13.2953,4.59952,2469.806,2019-7-12T12:06:56Z
2019-07-12T10:09:41Z,42.805,6.029,13.2959,4.59952,2469.806,2019-7-12T12:10:00Z
2019-07-12T10:12:45Z,42.805,6.029,13.2957,4.59956,2469.76,2019-7-12T12:13:03Z
2019-07-12T10:15:48Z,42.805,6.029,13.2955,4.59954,2469.811,2019-7-12T12:16:06Z
2019-07-12T10:18:51Z,42.805,6.029,13.2956,4.59953,2469.783,2019-7-12T12:19:09Z
2019-07-12T10:21:54Z,42.805,6.029,13.2957,4.59955,2469.797,2019-7-12T12:22:12Z
2019-07-12T10:24:57Z,42.805,6.029,13.2957,4.59954,2469.773,2019-7-12T12:25:16Z
2019-07-12T10:28:01Z,42.805,6.029,13.2958,4.59954,2469.783,2019-7-12T12:28:19Z
2019-07-12T10:31:04Z,42.805,6.029,13.2955,4.59956,2469.76,2019-7-12T12:31:22Z
2019-07-12T10:34:07Z,42.805,6.029,13.2952,4.59952,2469.783,2019-7-12T12:34:25Z
2019-07-12T10:37:10Z,42.805,6.029,13.2958,4.59955,2469.821,2019-7-12T12:37:28Z
2019-07-12T10:40:13Z,42.805,6.029,13.2955,4.59955,2469.821,2019-7-12T12:40:31Z
2019-07-12T10:43:17Z,42.805,6.029,13.2954,4.59953,2469.76,2019-7-12T12:43:35Z
2019-07-12T10:46:20Z,42.805,6.029,13.2956,4.59952,2469.769,2019-7-12T12:46:38Z
2019-07-12T10:49:23Z,42.805,6.029,13.2957,4.59953,2469.783,2019-7-12T12:49:41Z
2019-07-12T10:52:26Z,42.805,6.029,13.2957,4.59952,2469.797,2019-7-12T12:52:44Z
2019-07-12T10:55:29Z,42.805,6.029,13.2955,4.59952,2469.773,2019-7-12T12:55:47Z
2019-07-12T10:58:32Z,42.805,6.029,13.2953,4.59953,2469.773,2019-7-12T12:58:51Z
2019-07-12T11:01:36Z,42.805,6.029,13.2958,4.59956,2469.797,2019-7-12T13:01:54Z
2019-07-12T11:04:39Z,42.805,6.029,13.2957,4.59952,2469.806,2019-7-12T13:04:57Z
2019-07-12T11:07:42Z,42.805,6.029,13.2955,4.59952,2469.783,2019-7-12T13:08:00Z
2019-07-12T11:10:45Z,42.805,6.029,13.2954,4.59954,2469.76,2019-7-12T13:11:03Z
2019-07-12T11:13:48Z,42.805,6.029,13.2957,4.59954,2469.806,2019-7-12T13:14:07Z
2019-07-12T11:16:52Z,42.805,6.029,13.2958,4.59956,2469.806,2019-7-12T13:17:10Z
2019-07-12T11:19:55Z,42.805,6.029,13.2956,4.59957,2469.783,2019-7-12T13:20:13Z
2019-07-12T11:22:58Z,42.805,6.029,13.2956,4.59954,2469.806,2019-7-12T13:23:16Z
2019-07-12T11:26:01Z,42.805,6.029,13.2954,4.59953,2469.797,2019-7-12T13:26:19Z
2019-07-12T11:29:04Z,42.805,6.029,13.2957,4.59954,2469.821,2019-7-12T13:29:23Z
2019-07-12T11:32:08Z,42.805,6.029,13.2953,4.59954,2469.844,2019-7-12T13:32:26Z
2019-07-12T11:35:11Z,42.805,6.029,13.2953,4.59952,2469.821,2019-7-12T13:35:29Z
2019-07-12T11:38:14Z,42.805,6.029,13.2955,4.59953,2469.806,2019-7-12T13:38:32Z
2019-07-12T11:41:17Z,42.805,6.029,13.2958,4.59954,2469.783,2019-7-12T13:41:35Z
2019-07-12T11:44:21Z,42.805,6.029,13.2956,4.59951,2469.783,2019-7-12T13:44:39Z
2019-07-12T11:47:24Z,42.805,6.029,13.2956,4.59959,2469.83,2019-7-12T13:47:42Z
2019-07-12T11:50:27Z,42.805,6.029,13.2958,4.59954,2469.821,2019-7-12T13:50:45Z
2019-07-12T11:53:30Z,42.805,6.029,13.2955,4.59952,2469.783,2019-7-12T13:53:49Z
2019-07-12T11:56:34Z,42.805,6.029,13.2954,4.59955,2469.83,2019-7-12T13:56:52Z
2019-07-12T11:59:37Z,42.805,6.029,13.2958,4.59953,2469.821,2019-7-12T13:59:55Z
2019-07-12T12:02:40Z,42.805,6.029,13.2957,4.59953,2469.806,2019-7-12T14:02:58Z
2019-07-12T12:05:43Z,42.805,6.029,13.2957,4.59956,2469.806,2019-7-12T14:06:02Z
2019-07-12T12:08:47Z,42.805,6.029,13.2954,4.59954,2469.821,2019-7-12T14:09:05Z
2019-07-12T12:11:50Z,42.805,6.029,13.2957,4.59953,2469.806,2019-7-12T14:12:08Z
2019-07-12T12:14:53Z,42.805,6.029,13.2952,4.59952,2469.806,2019-7-12T14:15:11Z
2019-07-12T12:17:56Z,42.805,6.029,13.2953,4.59954,2469.783,2019-7-12T14:18:14Z
2019-07-12T12:20:59Z,42.805,6.029,13.2957,4.59954,2469.821,2019-7-12T14:21:18Z
2019-07-12T12:24:03Z,42.805,6.029,13.2957,4.59954,2469.806,2019-7-12T14:24:21Z
2019-07-12T12:27:06Z,42.805,6.029,13.2958,4.59954,2469.844,2019-7-12T14:27:24Z
2019-07-12T12:30:09Z,42.805,6.029,13.2957,4.59954,2469.844,2019-7-12T14:30:27Z
2019-07-12T12:33:12Z,42.805,6.029,13.2957,4.59954,2469.821,2019-7-12T14:33:30Z
2019-07-12T12:36:15Z,42.805,6.029,13.2956,4.59954,2469.806,2019-7-12T14:36:34Z
2019-07-12T12:39:19Z,42.805,6.029,13.2957,4.59953,2469.867,2019-7-12T14:39:37Z
2019-07-12T12:42:22Z,42.805,6.029,13.2953,4.59954,2469.844,2019-7-12T14:42:40Z
2019-07-12T12:45:25Z,42.805,6.029,13.2957,4.59954,2469.83,2019-7-12T14:45:43Z
2019-07-12T12:48:28Z,42.805,6.029,13.2957,4.59954,2469.821,2019-7-12T14:48:47Z
2019-07-12T12:51:32Z,42.805,6.029,13.2954,4.59956,2469.844,2019-7-12T14:51:50Z
2019-07-12T12:54:35Z,42.805,6.029,13.2956,4.59953,2469.83,2019-7-12T14:54:53Z
2019-07-12T12:57:38Z,42.805,6.029,13.2953,4.59953,2469.83,2019-7-12T14:57:56Z
2019-07-12T13:00:41Z,42.805,6.029,13.2956,4.59954,2469.853,2019-7-12T15:00:59Z
2019-07-12T13:03:44Z,42.805,6.029,13.2952,4.59954,2469.83,2019-7-12T15:04:02Z
2019-07-12T13:06:48Z,42.805,6.029,13.2957,4.59954,2469.83,2019-7-12T15:07:06Z
2019-07-12T13:09:51Z,42.805,6.029,13.2958,4.59956,2469.867,2019-7-12T15:10:09Z
2019-07-12T13:12:54Z,42.805,6.029,13.2954,4.59955,2469.83,2019-7-12T15:13:12Z
2019-07-12T13:15:58Z,42.805,6.029,13.2957,4.59954,2469.876,2019-7-12T15:16:16Z
2019-07-12T13:19:01Z,42.805,6.029,13.2958,4.59955,2469.83,2019-7-12T15:19:19Z
2019-07-12T13:22:04Z,42.805,6.029,13.2955,4.59955,2469.867,2019-7-12T15:22:22Z
2019-07-12T13:25:07Z,42.805,6.029,13.2955,4.59954,2469.853,2019-7-12T15:25:25Z
2019-07-12T13:28:10Z,42.805,6.029,13.2954,4.59954,2469.853,2019-7-12T15:28:28Z
2019-07-12T13:31:14Z,42.805,6.029,13.2955,4.59956,2469.83,2019-7-12T15:31:32Z
2019-07-12T13:34:17Z,42.805,6.029,13.2955,4.59955,2469.876,2019-7-12T15:34:35Z
2019-07-12T13:37:20Z,42.805,6.029,13.2955,4.59955,2469.89,2019-7-12T15:37:38Z
2019-07-12T13:40:23Z,42.805,6.029,13.2954,4.59954,2469.89,2019-7-12T15:40:41Z
2019-07-12T13:43:26Z,42.805,6.029,13.2957,4.59956,2469.853,2019-7-12T15:43:44Z
2019-07-12T13:46:30Z,42.805,6.029,13.2959,4.59955,2469.89,2019-7-12T15:46:48Z
2019-07-12T13:49:33Z,42.805,6.029,13.2958,4.59954,2469.876,2019-7-12T15:49:51Z
2019-07-12T13:52:36Z,42.805,6.029,13.2958,4.59955,2469.853,2019-7-12T15:52:54Z
2019-07-12T13:55:39Z,42.805,6.029,13.2954,4.59954,2469.914,2019-7-12T15:55:57Z
2019-07-12T13:58:42Z,42.805,6.029,13.2957,4.59954,2469.9,2019-7-12T15:59:00Z
2019-07-12T14:01:45Z,42.805,6.029,13.2954,4.59954,2469.876,2019-7-12T16:02:04Z
2019-07-12T14:04:49Z,42.805,6.029,13.2952,4.59954,2469.844,2019-7-12T16:05:07Z
2019-07-12T14:07:52Z,42.805,6.029,13.2953,4.59954,2469.914,2019-7-12T16:08:10Z
2019-07-12T14:10:55Z,42.805,6.029,13.2956,4.59954,2469.914,2019-7-12T16:11:13Z
2019-07-12T14:13:58Z,42.805,6.029,13.2953,4.59958,2469.876,2019-7-12T16:14:16Z
2019-07-12T14:17:01Z,42.805,6.029,13.2957,4.59954,2469.876,2019-7-12T16:17:20Z
2019-07-12T14:20:05Z,42.805,6.029,13.2955,4.59954,2469.89,2019-7-12T16:20:23Z
2019-07-12T14:23:08Z,42.805,6.029,13.2952,4.59955,2469.867,2019-7-12T16:23:26Z
2019-07-12T14:26:11Z,42.805,6.029,13.2955,4.59953,2469.853,2019-7-12T16:26:29Z
2019-07-12T14:29:14Z,42.805,6.029,13.2949,4.59954,2469.867,2019-7-12T16:29:32Z
2019-07-12T14:32:17Z,42.805,6.029,13.2957,4.59956,2469.876,2019-7-12T16:32:36Z
2019-07-12T14:35:21Z,42.805,6.029,13.2957,4.59954,2469.876,2019-7-12T16:35:39Z
2019-07-12T14:38:24Z,42.805,6.029,13.2960,4.59954,2469.9,2019-7-12T16:38:42Z
2019-07-12T14:41:27Z,42.805,6.029,13.2958,4.59954,2469.914,2019-7-12T16:41:45Z
2019-07-12T14:44:30Z,42.805,6.029,13.2957,4.59954,2469.9,2019-7-12T16:44:48Z
2019-07-12T14:47:34Z,42.805,6.029,13.2955,4.59953,2469.9,2019-7-12T16:47:52Z
2019-07-12T14:50:37Z,42.805,6.029,13.2958,4.59954,2469.914,2019-7-12T16:50:55Z
2019-07-12T14:53:40Z,42.805,6.029,13.2959,4.59954,2469.923,2019-7-12T16:53:58Z
2019-07-12T14:56:43Z,42.805,6.029,13.2956,4.59955,2469.914,2019-7-12T16:57:01Z
2019-07-12T14:59:46Z,42.805,6.029,13.2955,4.59956,2469.914,2019-7-12T17:00:04Z
2019-07-12T15:02:49Z,42.805,6.029,13.2957,4.59954,2469.9,2019-7-12T17:03:08Z
2019-07-12T15:05:53Z,42.805,6.029,13.2956,4.59955,2469.937,2019-7-12T17:06:11Z
2019-07-12T15:08:56Z,42.805,6.029,13.2956,4.59954,2469.9,2019-7-12T17:09:14Z
2019-07-12T15:11:59Z,42.805,6.029,13.2956,4.59953,2469.876,2019-7-12T17:12:17Z
2019-07-12T15:15:02Z,42.805,6.029,13.2956,4.59954,2469.9,2019-7-12T17:15:20Z
2019-07-12T15:18:05Z,42.805,6.029,13.2957,4.59953,2469.9,2019-7-12T17:18:24Z
2019-07-12T15:21:09Z,42.805,6.029,13.2960,4.59954,2469.923,2019-7-12T17:21:27Z
2019-07-12T15:24:12Z,42.805,6.029,13.2953,4.59954,2469.914,2019-7-12T17:24:30Z
2019-07-12T15:27:15Z,42.805,6.029,13.2953,4.59954,2469.9,2019-7-12T17:27:33Z
2019-07-12T15:30:18Z,42.805,6.029,13.2956,4.59954,2469.914,2019-7-12T17:30:36Z
2019-07-12T15:33:21Z,42.805,6.029,13.2956,4.59955,2469.937,2019-7-12T17:33:39Z
2019-07-12T15:36:25Z,42.805,6.029,13.2953,4.59954,2469.96,2019-7-12T17:36:43Z
2019-07-12T15:39:28Z,42.805,6.029,13.2956,4.59954,2469.89,2019-7-12T17:39:46Z
2019-07-12T15:42:31Z,42.805,6.029,13.2952,4.59954,2469.937,2019-7-12T17:42:49Z
2019-07-12T15:45:34Z,42.805,6.029,13.2957,4.59953,2469.914,2019-7-12T17:45:52Z
2019-07-12T15:48:38Z,42.805,6.029,13.2960,4.59954,2469.937,2019-7-12T17:48:56Z
2019-07-12T15:51:41Z,42.805,6.029,13.2953,4.59953,2469.947,2019-7-12T17:51:59Z
2019-07-12T15:54:44Z,42.805,6.029,13.2955,4.59953,2469.923,2019-7-12T17:55:02Z
2019-07-12T15:57:47Z,42.805,6.029,13.2953,4.59954,2469.923,2019-7-12T17:58:05Z
2019-07-12T16:00:50Z,42.805,6.029,13.2954,4.59954,2469.923,2019-7-12T18:01:08Z
2019-07-12T16:03:53Z,42.805,6.029,13.2954,4.59953,2469.947,2019-7-12T18:04:12Z
2019-07-12T16:06:57Z,42.805,6.029,13.2953,4.59954,2469.9,2019-7-12T18:07:15Z
2019-07-12T16:10:00Z,42.805,6.029,13.2954,4.59954,2469.96,2019-7-12T18:10:18Z
2019-07-12T16:13:03Z,42.805,6.029,13.2957,4.59956,2469.923,2019-7-12T18:13:21Z
2019-07-12T16:16:06Z,42.805,6.029,13.2955,4.59955,2469.947,2019-7-12T18:16:24Z
2019-07-12T16:19:09Z,42.805,6.029,13.2958,4.59954,2469.96,2019-7-12T18:19:28Z
2019-07-12T16:22:13Z,42.805,6.029,13.2956,4.59955,2469.9,2019-7-12T18:22:31Z
2019-07-12T16:25:16Z,42.805,6.029,13.2955,4.59954,2469.914,2019-7-12T18:25:34Z
2019-07-12T16:28:19Z,42.805,6.029,13.2955,4.59956,2469.923,2019-7-12T18:28:37Z
2019-07-12T16:31:22Z,42.805,6.029,13.2958,4.59954,2469.947,2019-7-12T18:31:40Z
2019-07-12T16:34:26Z,42.805,6.029,13.2958,4.59956,2469.947,2019-7-12T18:34:44Z
2019-07-12T16:37:29Z,42.805,6.029,13.2958,4.59954,2469.947,2019-7-12T18:37:47Z
2019-07-12T16:40:32Z,42.805,6.029,13.2958,4.59955,2469.937,2019-7-12T18:40:50Z
2019-07-12T16:43:35Z,42.805,6.029,13.2957,4.59955,2469.914,2019-7-12T18:43:53Z
2019-07-12T16:46:39Z,42.805,6.029,13.2958,4.59955,2469.947,2019-7-12T18:46:57Z
2019-07-12T16:49:42Z,42.805,6.029,13.2953,4.59955,2469.96,2019-7-12T18:50:00Z
2019-07-12T16:52:45Z,42.805,6.029,13.2957,4.59956,2469.96,2019-7-12T18:53:03Z
2019-07-12T16:55:48Z,42.805,6.029,13.2961,4.59956,2469.937,2019-7-12T18:56:06Z
2019-07-12T16:58:51Z,42.805,6.029,13.2952,4.59955,2469.923,2019-7-12T18:59:09Z
2019-07-12T17:01:55Z,42.805,6.029,13.2959,4.59958,2469.947,2019-7-12T19:02:13Z
2019-07-12T17:04:58Z,42.805,6.029,13.2954,4.59956,2469.937,2019-7-12T19:05:16Z
2019-07-12T17:08:01Z,42.805,6.029,13.2957,4.59955,2469.96,2019-7-12T19:08:19Z
2019-07-12T17:11:04Z,42.805,6.029,13.2957,4.59958,2469.9,2019-7-12T19:11:22Z
2019-07-12T17:14:07Z,42.805,6.029,13.2955,4.59956,2469.937,2019-7-12T19:14:25Z
2019-07-12T17:17:11Z,42.805,6.029,13.2954,4.59956,2469.9,2019-7-12T19:17:29Z
2019-07-12T17:20:14Z,42.805,6.029,13.2958,4.59956,2469.947,2019-7-12T19:20:32Z
2019-07-12T17:23:17Z,42.805,6.029,13.2958,4.59954,2469.937,2019-7-12T19:23:35Z
2019-07-12T17:26:20Z,42.805,6.029,13.2955,4.59956,2469.96,2019-7-12T19:26:38Z
2019-07-12T17:29:23Z,42.805,6.029,13.2957,4.59954,2469.914,2019-7-12T19:29:41Z
2019-07-12T17:32:27Z,42.805,6.029,13.2960,4.59954,2469.9,2019-7-12T19:32:45Z
2019-07-12T17:35:30Z,42.805,6.029,13.2952,4.59956,2469.923,2019-7-12T19:35:48Z
2019-07-12T17:38:33Z,42.805,6.029,13.2960,4.59958,2469.9,2019-7-12T19:38:51Z
2019-07-12T17:41:36Z,42.805,6.029,13.2957,4.59955,2469.96,2019-7-12T19:41:55Z
2019-07-12T17:44:40Z,42.805,6.029,13.2955,4.59956,2469.937,2019-7-12T19:44:58Z
2019-07-12T17:47:43Z,42.805,6.029,13.2955,4.59954,2469.923,2019-7-12T19:48:01Z
2019-07-12T17:50:46Z,42.805,6.029,13.2957,4.59958,2469.923,2019-7-12T19:51:04Z
2019-07-12T17:53:49Z,42.805,6.029,13.2957,4.59958,2469.9,2019-7-12T19:54:07Z
2019-07-12T17:56:52Z,42.805,6.029,13.2960,4.59957,2469.96,2019-7-12T19:57:10Z
2019-07-12T17:59:56Z,42.805,6.029,13.2961,4.59956,2469.937,2019-7-12T20:00:14Z
2019-07-12T18:02:59Z,42.805,6.029,13.2957,4.59955,2469.923,2019-7-12T20:03:17Z
2019-07-12T18:06:02Z,42.805,6.029,13.2958,4.59958,2469.947,2019-7-12T20:06:20Z
2019-07-12T18:09:05Z,42.805,6.029,13.2960,4.59955,2469.9,2019-7-12T20:09:23Z
2019-07-12T18:12:08Z,42.805,6.029,13.2957,4.59956,2469.9,2019-7-12T20:12:27Z
2019-07-12T18:15:12Z,42.805,6.029,13.2961,4.59954,2469.947,2019-7-12T20:15:30Z
2019-07-12T18:18:15Z,42.805,6.029,13.2961,4.59957,2469.923,2019-7-12T20:18:33Z
2019-07-12T18:21:18Z,42.805,6.029,13.2957,4.59956,2469.96,2019-7-12T20:21:36Z
2019-07-12T18:24:21Z,42.805,6.029,13.2959,4.59956,2469.909,2019-7-12T20:24:39Z
2019-07-12T18:27:25Z,42.805,6.029,13.2959,4.59955,2469.937,2019-7-12T20:27:43Z
2019-07-12T18:30:28Z,42.805,6.029,13.2954,4.59955,2469.947,2019-7-12T20:30:46Z
2019-07-12T18:33:31Z,42.805,6.029,13.2958,4.59955,2469.937,2019-7-12T20:33:49Z
2019-07-12T18:36:34Z,42.805,6.029,13.2958,4.59956,2469.937,2019-7-12T20:36:53Z
2019-07-12T18:39:38Z,42.805,6.029,13.2954,4.59955,2469.937,2019-7-12T20:39:56Z
2019-07-12T18:42:41Z,42.805,6.029,13.2956,4.59956,2469.9,2019-7-12T20:42:59Z
2019-07-12T18:45:44Z,42.805,6.029,13.2959,4.59955,2469.937,2019-7-12T20:46:02Z
2019-07-12T18:48:47Z,42.805,6.029,13.2960,4.59958,2469.9,2019-7-12T20:49:06Z
2019-07-12T18:51:51Z,42.805,6.029,13.2954,4.59955,2469.923,2019-7-12T20:52:09Z
2019-07-12T18:54:54Z,42.805,6.029,13.2956,4.59954,2469.914,2019-7-12T20:55:12Z
2019-07-12T18:57:57Z,42.805,6.029,13.2957,4.59955,2469.886,2019-7-12T20:58:15Z
2019-07-12T19:01:01Z,42.805,6.029,13.2957,4.59955,2469.937,2019-7-12T21:01:19Z
2019-07-12T19:04:04Z,42.805,6.029,13.2953,4.59955,2469.923,2019-7-12T21:04:22Z
2019-07-12T19:07:07Z,42.805,6.029,13.2954,4.59954,2469.876,2019-7-12T21:07:25Z
2019-07-12T19:10:11Z,42.805,6.029,13.2957,4.59954,2469.9,2019-7-12T21:10:29Z
2019-07-12T19:13:14Z,42.805,6.029,13.2958,4.59955,2469.9,2019-7-12T21:13:32Z
2019-07-12T19:16:18Z,42.805,6.029,13.2956,4.59954,2469.914,2019-7-12T21:16:36Z
2019-07-12T19:19:21Z,42.805,6.029,13.2958,4.59954,2469.9,2019-7-12T21:19:39Z
2019-07-12T19:22:24Z,42.805,6.029,13.2961,4.59955,2469.923,2019-7-12T21:22:43Z
2019-07-12T19:25:28Z,42.805,6.029,13.2957,4.59956,2469.9,2019-7-12T21:25:46Z
2019-07-12T19:28:31Z,42.805,6.029,13.2957,4.59955,2469.923,2019-7-12T21:28:49Z
2019-07-12T19:31:34Z,42.805,6.029,13.2954,4.59954,2469.914,2019-7-12T21:31:52Z
2019-07-12T19:34:38Z,42.805,6.029,13.2958,4.59956,2469.937,2019-7-12T21:34:56Z
2019-07-12T19:37:41Z,42.805,6.029,13.2962,4.59957,2469.937,2019-7-12T21:37:59Z
2019-07-12T19:40:44Z,42.805,6.029,13.2961,4.59954,2469.876,2019-7-12T21:41:02Z
2019-07-12T19:43:47Z,42.805,6.029,13.2960,4.59954,2469.89,2019-7-12T21:44:06Z
2019-07-12T19:46:51Z,42.805,6.029,13.2959,4.59956,2469.9,2019-7-12T21:47:09Z
2019-07-12T19:49:54Z,42.805,6.029,13.2956,4.59955,2469.89,2019-7-12T21:50:12Z
2019-07-12T19:52:57Z,42.805,6.029,13.2958,4.59954,2469.9,2019-7-12T21:53:16Z
2019-07-12T19:56:01Z,42.805,6.029,13.2955,4.59954,2469.9,2019-7-12T21:56:19Z
2019-07-12T19:59:04Z,42.805,6.029,13.2953,4.59954,2469.876,2019-7-12T21:59:22Z
2019-07-12T20:02:07Z,42.805,6.029,13.2957,4.59954,2469.9,2019-7-12T22:02:25Z
2019-07-12T20:05:11Z,42.805,6.029,13.2961,4.59954,2469.9,2019-7-12T22:05:29Z
2019-07-12T20:08:14Z,42.805,6.029,13.2955,4.59954,2469.876,2019-7-12T22:08:32Z
2019-07-12T20:11:17Z,42.805,6.029,13.2956,4.59954,2469.89,2019-7-12T22:11:35Z
2019-07-12T20:14:20Z,42.805,6.029,13.2959,4.59956,2469.876,2019-7-12T22:14:39Z
2019-07-12T20:17:24Z,42.805,6.029,13.2956,4.59954,2469.876,2019-7-12T22:17:42Z
2019-07-12T20:20:27Z,42.805,6.029,13.2955,4.59954,2469.923,2019-7-12T22:20:46Z
2019-07-12T20:23:31Z,42.805,6.029,13.2958,4.59954,2469.89,2019-7-12T22:23:49Z
2019-07-12T20:26:34Z,42.805,6.029,13.2957,4.59954,2469.867,2019-7-12T22:26:52Z
2019-07-12T20:29:37Z,42.805,6.029,13.2957,4.59954,2469.9,2019-7-12T22:29:55Z
2019-07-12T20:32:41Z,42.805,6.029,13.2957,4.59954,2469.876,2019-7-12T22:32:59Z
2019-07-12T20:35:44Z,42.805,6.029,13.2956,4.59954,2469.89,2019-7-12T22:36:02Z
2019-07-12T20:38:47Z,42.805,6.029,13.2959,4.59954,2469.914,2019-7-12T22:39:05Z
2019-07-12T20:41:50Z,42.805,6.029,13.2958,4.59954,2469.89,2019-7-12T22:42:09Z
2019-07-12T20:44:54Z,42.805,6.029,13.2957,4.59954,2469.876,2019-7-12T22:45:12Z
2019-07-12T20:47:57Z,42.805,6.029,13.2958,4.59955,2469.853,2019-7-12T22:48:15Z
2019-07-12T20:51:00Z,42.805,6.029,13.2957,4.59956,2469.89,2019-7-12T22:51:18Z
2019-07-12T20:54:04Z,42.805,6.029,13.2958,4.59954,2469.853,2019-7-12T22:54:22Z
2019-07-12T20:57:07Z,42.805,6.029,13.2957,4.59956,2469.876,2019-7-12T22:57:25Z
2019-07-12T21:00:10Z,42.805,6.029,13.2958,4.59955,2469.867,2019-7-12T23:00:28Z
2019-07-12T21:03:14Z,42.805,6.029,13.2957,4.59954,2469.853,2019-7-12T23:03:32Z
2019-07-12T21:06:17Z,42.805,6.029,13.2957,4.59956,2469.867,2019-7-12T23:06:35Z
2019-07-12T21:09:20Z,42.805,6.029,13.2958,4.59954,2469.867,2019-7-12T23:09:38Z
2019-07-12T21:12:23Z,42.805,6.029,13.2957,4.59954,2469.876,2019-7-12T23:12:41Z
2019-07-12T21:15:27Z,42.805,6.029,13.2962,4.59954,2469.853,2019-7-12T23:15:45Z
2019-07-12T21:18:30Z,42.805,6.029,13.2957,4.59954,2469.853,2019-7-12T23:18:48Z
2019-07-12T21:21:33Z,42.805,6.029,13.2955,4.59954,2469.853,2019-7-12T23:21:52Z
2019-07-12T21:24:37Z,42.805,6.029,13.2957,4.59954,2469.876,2019-7-12T23:24:55Z
2019-07-12T21:27:40Z,42.805,6.029,13.2953,4.59955,2469.83,2019-7-12T23:27:58Z
2019-07-12T21:30:43Z,42.805,6.029,13.2958,4.59954,2469.853,2019-7-12T23:31:01Z
2019-07-12T21:33:47Z,42.805,6.029,13.2956,4.59956,2469.867,2019-7-12T23:34:05Z
2019-07-12T21:36:50Z,42.805,6.029,13.2956,4.59955,2469.844,2019-7-12T23:37:08Z
2019-07-12T21:39:54Z,42.805,6.029,13.2961,4.59954,2469.844,2019-7-12T23:40:12Z
2019-07-12T21:42:57Z,42.805,6.029,13.2959,4.59956,2469.89,2019-7-12T23:43:15Z
2019-07-12T21:46:01Z,42.805,6.029,13.2955,4.59954,2469.853,2019-7-12T23:46:19Z
2019-07-12T21:49:04Z,42.805,6.029,13.2958,4.59956,2469.83,2019-7-12T23:49:22Z
2019-07-12T21:52:07Z,42.805,6.029,13.2957,4.59955,2469.853,2019-7-12T23:52:25Z
2019-07-12T21:55:10Z,42.805,6.029,13.2957,4.59956,2469.914,2019-7-12T23:55:29Z
2019-07-12T21:58:14Z,42.805,6.029,13.2958,4.59954,2469.844,2019-7-12T23:58:32Z
2019-07-12T22:01:17Z,42.805,6.029,13.2956,4.59955,2469.821,2019-7-13T00:01:35Z
2019-07-12T22:04:18Z,42.805,6.029,13.2957,4.59954,2469.83,2019-7-13T00:04:36Z
2019-07-12T22:07:21Z,42.805,6.029,13.2960,4.59955,2469.844,2019-7-13T00:07:40Z
2019-07-12T22:10:25Z,42.805,6.029,13.2958,4.59958,2469.83,2019-7-13T00:10:43Z
2019-07-12T22:13:28Z,42.805,6.029,13.2956,4.59956,2469.867,2019-7-13T00:13:46Z
2019-07-12T22:16:31Z,42.805,6.029,13.2964,4.59955,2469.876,2019-7-13T00:16:50Z
2019-07-12T22:19:35Z,42.805,6.029,13.2957,4.59958,2469.83,2019-7-13T00:19:53Z
2019-07-12T22:22:38Z,42.805,6.029,13.2957,4.59958,2469.844,2019-7-13T00:22:56Z
2019-07-12T22:25:41Z,42.805,6.029,13.2958,4.59955,2469.83,2019-7-13T00:25:59Z
2019-07-12T22:28:44Z,42.805,6.029,13.2960,4.59957,2469.844,2019-7-13T00:29:03Z
2019-07-12T22:31:48Z,42.805,6.029,13.2960,4.59956,2469.853,2019-7-13T00:32:06Z
2019-07-12T22:34:51Z,42.805,6.029,13.2957,4.59956,2469.876,2019-7-13T00:35:09Z
2019-07-12T22:37:54Z,42.805,6.029,13.2961,4.59955,2469.844,2019-7-13T00:38:13Z
2019-07-12T22:40:58Z,42.805,6.029,13.2957,4.59956,2469.844,2019-7-13T00:41:16Z
2019-07-12T22:44:01Z,42.805,6.029,13.2961,4.59956,2469.867,2019-7-13T00:44:19Z
2019-07-12T22:47:04Z,42.805,6.029,13.2958,4.59955,2469.83,2019-7-13T00:47:22Z
2019-07-12T22:50:07Z,42.805,6.029,13.2959,4.59956,2469.844,2019-7-13T00:50:26Z
2019-07-12T22:53:11Z,42.805,6.029,13.2961,4.59959,2469.844,2019-7-13T00:53:29Z
2019-07-12T22:56:14Z,42.805,6.029,13.2961,4.59956,2469.83,2019-7-13T00:56:32Z